| time (UTC) | temp F | wind direction | speed MPH | gust MPH | rain 1hr in | rain 24hr in | rain mn in | humidity % | barometer mb |
| 20260505011527 | 70 | 180 | 1.0 | 6.0 | 0.00 | 0.00 | 0.00 | 65 | 1006.9 |
| 20260505010026 | 71 | 182 | 3.0 | 7.0 | 0.00 | 0.00 | 0.00 | 63 | 1006.6 |
| 20260505004526 | 72 | 161 | 3.0 | 8.0 | 0.00 | 0.00 | 0.00 | 62 | 1006.7 |
| 20260505003024 | 72 | 196 | 2.0 | 11.0 | 0.00 | 0.00 | 0.00 | 61 | 1006.6 |
| 20260505001524 | 73 | 193 | 4.0 | 13.0 | 0.00 | 0.00 | 0.00 | 60 | 1006.6 |
| 20260505000031 | 73 | 164 | 4.0 | 12.0 | 0.00 | 0.00 | 0.00 | 59 | 1006.6 |
| 20260504234523 | 74 | 233 | 4.0 | 9.0 | 0.00 | 0.00 | 0.00 | 59 | 1006.6 |
| 20260504233022 | 75 | 197 | 7.0 | 14.0 | 0.00 | 0.00 | 0.00 | 56 | 1006.8 |
| 20260504231526 | 76 | 190 | 6.0 | 14.0 | 0.00 | 0.00 | 0.00 | 56 | 1007.1 |
| 20260504230018 | 76 | 223 | 3.0 | 11.0 | 0.00 | 0.00 | 0.00 | 55 | 1007.2 |
| 20260504224522 | 77 | 180 | 5.0 | 14.0 | 0.00 | 0.00 | 0.00 | 53 | 1007.2 |
| 20260504223015 | 77 | 215 | 6.0 | 15.0 | 0.00 | 0.00 | 0.00 | 53 | 1007.1 |
| 20260504221513 | 77 | 187 | 5.0 | 9.0 | 0.00 | 0.00 | 0.00 | 54 | 1007.2 |
| 20260504220017 | 77 | 167 | 4.0 | 17.0 | 0.00 | 0.00 | 0.00 | 53 | 1007.4 |
| 20260504214512 | 78 | 232 | 5.0 | 17.0 | 0.00 | 0.00 | 0.00 | 52 | 1007.4 |
| 20260504213012 | 78 | 192 | 9.0 | 19.0 | 0.00 | 0.00 | 0.00 | 50 | 1007.5 |
| 20260504211513 | 78 | 177 | 5.0 | 19.0 | 0.00 | 0.00 | 0.00 | 53 | 1007.4 |
| 20260504210009 | 79 | 175 | 5.0 | 15.0 | 0.00 | 0.00 | 0.00 | 53 | 1007.5 |
| 20260504204508 | 78 | 211 | 8.0 | 17.0 | 0.00 | 0.00 | 0.00 | 50 | 1007.8 |
| 20260504203015 | 79 | 176 | 7.0 | 15.0 | 0.00 | 0.00 | 0.00 | 53 | 1007.9 |
| 20260504201502 | 78 | 229 | 8.0 | 14.0 | 0.00 | 0.00 | 0.00 | 50 | 1008.2 |
| 20260504200002 | 78 | 215 | 8.0 | 22.0 | 0.00 | 0.00 | 0.00 | 51 | 1008.3 |
| 20260504194610 | 78 | 207 | 6.0 | 17.0 | 0.00 | 0.00 | 0.00 | 52 | 1008.5 |
| 20260504193058 | 78 | 202 | 8.0 | 16.0 | 0.00 | 0.00 | 0.00 | 54 | 1008.6 |
| 20260504191556 | 78 | 259 | 7.0 | 14.0 | 0.00 | 0.00 | 0.00 | 54 | 1008.8 |
| 20260504190122 | 78 | 192 | 6.0 | 16.0 | 0.00 | 0.00 | 0.00 | 53 | 1008.7 |
| 20260504184557 | 78 | 209 | 7.0 | 18.0 | 0.00 | 0.00 | 0.00 | 52 | 1008.9 |
| 20260504183051 | 77 | 229 | 7.0 | 13.0 | 0.00 | 0.00 | 0.00 | 51 | 1009.1 |
| 20260504181553 | 78 | 180 | 6.0 | 14.0 | 0.00 | 0.00 | 0.00 | 54 | 1009.1 |
| 20260504180128 | 77 | 196 | 7.0 | 16.0 | 0.00 | 0.00 | 0.00 | 52 | 1009.2 |
| 20260504174548 | 77 | 234 | 9.0 | 15.0 | 0.00 | 0.00 | 0.00 | 52 | 1009.4 |
| 20260504173056 | 76 | 205 | 8.0 | 14.0 | 0.00 | 0.00 | 0.00 | 55 | 1009.8 |
| 20260504171539 | 76 | 229 | 8.0 | 17.0 | 0.00 | 0.00 | 0.00 | 53 | 1010.1 |
| 20260504081504 | 61 | 242 | 1.0 | 8.0 | 0.00 | 0.00 | 0.00 | 78 | 1011.8 |
| 20260504050105 | 63 | 180 | 2.0 | 5.0 | 0.00 | 0.00 | 0.00 | 71 | 1013.2 |
| 20260504044539 | 64 | 161 | 3.0 | 5.0 | 0.00 | 0.00 | 0.00 | 70 | 1013.4 |
| 20260504043038 | 64 | 196 | 1.0 | 6.0 | 0.00 | 0.00 | 0.00 | 70 | 1013.5 |
| 20260504041538 | 64 | 159 | 3.0 | 7.0 | 0.00 | 0.00 | 0.00 | 70 | 1013.6 |
| 20260504040138 | 64 | 186 | 2.0 | 6.0 | 0.00 | 0.00 | 0.00 | 70 | 1013.7 |
| 20260504034547 | 63 | 192 | 1.0 | 6.0 | 0.00 | 0.00 | 0.00 | 71 | 1013.9 |
| 20260504033036 | 64 | 192 | 3.0 | 6.0 | 0.00 | 0.00 | 0.00 | 70 | 1014.0 |
| 20260504031542 | 64 | 186 | 2.0 | 6.0 | 0.00 | 0.00 | 0.00 | 69 | 1013.9 |
| 20260504030040 | 64 | 224 | 1.0 | 5.0 | 0.00 | 0.00 | 0.00 | 69 | 1014.0 |
| 20260504024538 | 64 | 203 | 1.0 | 5.0 | 0.00 | 0.00 | 0.00 | 69 | 1013.9 |
| 20260504023033 | 64 | 184 | 2.0 | 5.0 | 0.00 | 0.00 | 0.00 | 69 | 1013.6 |
| 20260504021533 | 62 | 190 | 2.0 | 6.0 | 0.00 | 0.00 | 0.00 | 73 | 1013.6 |
| 20260504020132 | 61 | 175 | 0.0 | 2.0 | 0.00 | 0.00 | 0.00 | 74 | 1013.7 |
| 20260504014532 | 61 | 175 | 0.0 | 1.0 | 0.00 | 0.00 | 0.00 | 75 | 1013.6 |
| 20260504013030 | 63 | 197 | 0.0 | 1.0 | 0.00 | 0.00 | 0.00 | 73 | 1013.5 |